This is the latest recevied weather packets stored in our database for station/object IW7DVM-13. If no packets are shown the sender has not sent any weather packets the latest 10 day(s).
| Time | Temp. | Humidity | Pressure | Rain* | Wind** | Luminosity | Snow |
|---|---|---|---|---|---|---|---|
| 1787927403 | 35° C | 50% | 1009.3 hPa | 0 mm | - | - | - |
| 1787927103 | 35° C | 48% | 1009.3 hPa | 0 mm | - | - | - |
| 1787926803 | 35° C | 50% | 1009.4 hPa | 0 mm | - | - | - |
| 1787926503 | 35° C | 49% | 1009.3 hPa | 0 mm | - | - | - |
| 1787926203 | 34.44° C | 49% | 1009.3 hPa | 0 mm | - | - | - |
| 1787925903 | 35° C | 48% | 1009.3 hPa | 0 mm | - | - | - |
| 1787925603 | 34.44° C | 50% | 1009.4 hPa | 0 mm | - | - | - |
| 1787925303 | 34.44° C | 52% | 1009.5 hPa | 0 mm | - | - | - |
| 1787925003 | 35° C | 54% | 1009.5 hPa | 0 mm | - | - | - |
| 1787924703 | 35° C | 54% | 1009.4 hPa | 0 mm | - | - | - |
| 1787924403 | 35° C | 53% | 1009.5 hPa | 0 mm | - | - | - |
| 1787924103 | 35° C | 52% | 1009.5 hPa | 0 mm | - | - | - |
| 1787923803 | 35° C | 52% | 1009.6 hPa | 0 mm | - | - | - |
| 1787923503 | 34.44° C | 55% | 1009.6 hPa | 0 mm | - | - | - |
| 1787923203 | 34.44° C | 56% | 1009.6 hPa | 0 mm | - | - | - |
| 1787922903 | 33.89° C | 58% | 1009.7 hPa | 0 mm | - | - | - |
| 1787922604 | 33.89° C | 59% | 1009.8 hPa | 0 mm | - | - | - |
| 1787922303 | 33.89° C | 60% | 1009.9 hPa | 0 mm | - | - | - |
| 1787922003 | 33.33° C | 60% | 1009.8 hPa | 0 mm | - | - | - |
| 1787921703 | 33.33° C | 61% | 1009.8 hPa | 0 mm | - | - | - |
| 1787921403 | 33.89° C | 60% | 1010 hPa | 0 mm | - | - | - |
| 1787921103 | 33.89° C | 59% | 1010 hPa | 0 mm | - | - | - |
| 1787920803 | 33.89° C | 59% | 1010.1 hPa | 0 mm | - | - | - |
| 1787920503 | 33.89° C | 60% | 1010.2 hPa | 0 mm | - | - | - |
| 1787920203 | 33.89° C | 59% | 1010 hPa | 0 mm | - | - | - |
* Rain latest hour (hover to see other rain measurements)
** Current wind speed in m/s (hover to see current wind gust speed)